Location: Unspecified
(0.0000°N, 0.0000°E)
Time: 19:20:56
(UTC+00:00)

FENGYUN 1C DEB - Pass Details

Date: 17 February 2026
Orbit: 819 x 963 km, 99.2° (Epoch: 3 October)

Event Time Altitude Azimuth Distance (km) Brightness Sun altitude
Rises 05:19:59 0° 192° (SSW) 3,530 ? -13.2°
Reaches altitude 10° 05:22:56 10° 206° (SSW) 2,565 ? -12.5°
Maximum altitude 05:27:15 22° 256° (WSW) 1,802 ? -11.4°
Enters shadow 05:31:20 11° 305° (NW) 2,455 ? -10.4°
